| time (UTC) | temp F | wind direction | speed knots | gust knots | rain 1hr in | rain 24hr in | rain mn in | humidity % | barometer mb |
| 20260507120103 | 63 | 82 | 0.9 | 2.6 | 0.00 | 0.00 | 0.00 | 94 | 1021.6 |
| 20260507114638 | 63 | 107 | 0.0 | 2.6 | 0.00 | 0.00 | 0.00 | 94 | 1021.6 |
| 20260507113054 | 61 | 116 | 0.0 | 1.7 | 0.00 | 0.00 | 0.00 | 95 | 1021.8 |
| 20260507111558 | 60 | 111 | 0.0 | 0.9 | 0.00 | 0.00 | 0.00 | 94 | 1022.0 |
| 20260507110052 | 59 | 112 | 0.0 | 0.9 | 0.00 | 0.00 | 0.00 | 93 | 1022.1 |
| 20260507104551 | 59 | 112 | 0.0 | 0.9 | 0.00 | 0.00 | 0.00 | 92 | 1022.3 |
| 20260507103048 | 60 | 111 | 0.0 | 0.9 | 0.00 | 0.00 | 0.00 | 91 | 1022.1 |
| 20260507101547 | 62 | 110 | 0.0 | 0.9 | 0.00 | 0.00 | 0.00 | 91 | 1022.1 |
| 20260507100043 | 62 | 111 | 0.0 | 1.7 | 0.00 | 0.00 | 0.00 | 92 | 1022.3 |
| 20260507094543 | 63 | 110 | 0.0 | 1.7 | 0.00 | 0.00 | 0.00 | 91 | 1022.2 |
| 20260507093047 | 63 | 111 | 0.0 | 0.9 | 0.00 | 0.00 | 0.00 | 90 | 1022.4 |
| 20260507091546 | 63 | 111 | 0.0 | 0.9 | 0.00 | 0.00 | 0.00 | 90 | 1022.4 |
| 20260507090042 | 62 | 111 | 0.0 | 0.9 | 0.00 | 0.00 | 0.00 | 91 | 1022.5 |
| 20260507084553 | 62 | 109 | 0.0 | 0.9 | 0.00 | 0.00 | 0.00 | 90 | 1022.6 |
| 20260507083039 | 62 | 109 | 0.0 | 0.9 | 0.00 | 0.00 | 0.00 | 90 | 1022.6 |
| 20260507081540 | 62 | 109 | 0.0 | 0.0 | 0.00 | 0.00 | 0.00 | 90 | 1022.7 |
| 20260507080041 | 62 | 108 | 0.0 | 0.9 | 0.00 | 0.00 | 0.00 | 89 | 1022.8 |
| 20260507074537 | 62 | 108 | 0.0 | 0.9 | 0.00 | 0.00 | 0.00 | 88 | 1022.8 |
| 20260507073036 | 62 | 108 | 0.0 | 1.7 | 0.00 | 0.00 | 0.00 | 88 | 1022.8 |
| 20260507071535 | 62 | 108 | 0.0 | 0.9 | 0.00 | 0.00 | 0.00 | 88 | 1022.8 |
| 20260507070036 | 62 | 103 | 0.0 | 0.9 | 0.00 | 0.00 | 0.00 | 87 | 1022.7 |
| 20260507064535 | 63 | 98 | 0.0 | 2.6 | 0.00 | 0.00 | 0.00 | 86 | 1022.6 |
| 20260507063134 | 63 | 105 | 0.0 | 1.7 | 0.00 | 0.00 | 0.00 | 85 | 1022.5 |
| 20260507061532 | 64 | 103 | 0.0 | 1.7 | 0.00 | 0.00 | 0.00 | 86 | 1022.4 |
| 20260507060035 | 64 | 99 | 0.0 | 0.9 | 0.00 | 0.00 | 0.00 | 85 | 1022.6 |
| 20260507054536 | 64 | 99 | 0.0 | 1.7 | 0.00 | 0.01 | 0.00 | 84 | 1022.8 |
| 20260507053029 | 65 | 100 | 0.0 | 0.9 | 0.00 | 0.01 | 0.00 | 83 | 1022.7 |
| 20260507051531 | 65 | 101 | 0.0 | 1.7 | 0.00 | 0.01 | 0.00 | 82 | 1022.7 |
| 20260507050029 | 66 | 98 | 0.0 | 1.7 | 0.00 | 0.01 | 0.00 | 81 | 1022.8 |
| 20260507044526 | 66 | 115 | 0.0 | 1.7 | 0.00 | 0.01 | 0.00 | 80 | 1022.7 |
| 20260507043025 | 67 | 103 | 0.0 | 2.6 | 0.00 | 0.01 | 0.00 | 79 | 1022.9 |
| 20260507041523 | 67 | 106 | 0.0 | 2.6 | 0.00 | 0.01 | 0.00 | 79 | 1023.1 |
| 20260507040022 | 68 | 98 | 0.9 | 2.6 | 0.00 | 0.01 | 0.00 | 78 | 1023.2 |
| 20260507034522 | 68 | 120 | 0.0 | 3.5 | 0.00 | 0.01 | 0.00 | 77 | 1023.2 |
| 20260507033021 | 68 | 108 | 0.0 | 3.5 | 0.00 | 0.01 | 0.00 | 77 | 1023.4 |
| 20260507031517 | 69 | 63 | 1.7 | 6.1 | 0.00 | 0.01 | 0.00 | 74 | 1023.6 |
| 20260507030020 | 70 | 82 | 0.9 | 4.3 | 0.00 | 0.01 | 0.00 | 73 | 1023.6 |
| 20260507024516 | 71 | 132 | 0.9 | 5.2 | 0.00 | 0.01 | 0.00 | 71 | 1023.6 |
| 20260507023014 | 71 | 41 | 2.6 | 6.1 | 0.00 | 0.01 | 0.00 | 72 | 1023.6 |
| 20260507021511 | 70 | 74 | 1.7 | 7.0 | 0.00 | 0.01 | 0.00 | 74 | 1023.7 |
| 20260507020010 | 69 | 25 | 1.7 | 7.0 | 0.00 | 0.01 | 0.00 | 75 | 1023.8 |
| 20260507014507 | 69 | 93 | 1.7 | 7.0 | 0.00 | 0.01 | 0.00 | 74 | 1024.0 |
| 20260507013012 | 69 | 80 | 2.6 | 6.1 | 0.00 | 0.01 | 0.00 | 76 | 1024.0 |
| 20260507011509 | 68 | 102 | 1.7 | 5.2 | 0.00 | 0.01 | 0.00 | 79 | 1024.2 |
| 20260507010003 | 68 | 77 | 1.7 | 7.0 | 0.00 | 0.01 | 0.00 | 80 | 1024.2 |
| 20260507004606 | 68 | 113 | 1.7 | 6.1 | 0.00 | 0.01 | 0.00 | 81 | 1024.5 |
| 20260507003058 | 68 | 100 | 0.9 | 6.1 | 0.00 | 0.01 | 0.00 | 81 | 1024.5 |
| 20260507001559 | 69 | 54 | 2.6 | 7.0 | 0.00 | 0.01 | 0.00 | 80 | 1024.6 |
| 20260507000056 | 69 | 252 | 2.6 | 7.8 | 0.00 | 0.01 | 0.00 | 80 | 1024.7 |
| 20260506234555 | 70 | 131 | 2.6 | 7.8 | 0.00 | 0.02 | 0.00 | 78 | 1024.9 |
| 20260506233107 | 70 | 117 | 3.5 | 7.0 | 0.00 | 0.02 | 0.00 | 79 | 1025.0 |
| 20260506231555 | 69 | 75 | 1.7 | 8.7 | 0.00 | 0.02 | 0.00 | 78 | 1025.3 |
| 20260506230048 | 69 | 98 | 0.9 | 4.3 | 0.00 | 0.02 | 0.00 | 81 | 1025.4 |
| 20260506224543 | 68 | 105 | 1.7 | 5.2 | 0.00 | 0.04 | 0.00 | 81 | 1025.6 |
| 20260506223044 | 68 | 117 | 1.7 | 5.2 | 0.00 | 0.04 | 0.00 | 81 | 1025.7 |
| 20260506221538 | 68 | 297 | 1.7 | 5.2 | 0.00 | 0.04 | 0.00 | 83 | 1025.8 |
| 20260506220034 | 68 | 104 | 1.7 | 7.0 | 0.00 | 0.04 | 0.00 | 82 | 1025.8 |
| 20260506214540 | 67 | 98 | 1.7 | 10.4 | 0.00 | 0.04 | 0.00 | 82 | 1025.9 |
| 20260506213027 | 66 | 66 | 2.6 | 7.8 | 0.00 | 0.04 | 0.00 | 85 | 1026.0 |
| 20260506211525 | 65 | 131 | 3.5 | 7.8 | 0.00 | 0.04 | 0.00 | 86 | 1026.0 |
| 20260506210027 | 65 | 113 | 3.5 | 7.8 | 0.00 | 0.04 | 0.00 | 88 | 1026.1 |
| 20260506204520 | 64 | 79 | 3.5 | 9.6 | 0.00 | 0.13 | 0.00 | 89 | 1026.2 |
| 20260506203020 | 63 | 95 | 1.7 | 7.0 | 0.00 | 0.13 | 0.00 | 91 | 1026.1 |
| 20260506201518 | 64 | 88 | 0.9 | 5.2 | 0.00 | 0.13 | 0.00 | 93 | 1026.0 |
| 20260506200018 | 63 | 98 | 0.9 | 3.5 | 0.00 | 0.13 | 0.00 | 95 | 1025.8 |
| 20260506194517 | 63 | 101 | 0.0 | 2.6 | 0.00 | 0.17 | 0.00 | 95 | 1025.8 |
| 20260506193015 | 62 | 116 | 0.0 | 1.7 | 0.00 | 0.17 | 0.00 | 96 | 1025.8 |
| 20260506191515 | 63 | 118 | 0.0 | 3.5 | 0.00 | 0.17 | 0.00 | 96 | 1025.9 |
| 20260506190015 | 62 | 104 | 0.0 | 0.9 | 0.00 | 0.17 | 0.00 | 96 | 1025.7 |
| 20260506184524 | 62 | 105 | 0.0 | 0.9 | 0.00 | 0.19 | 0.00 | 96 | 1025.7 |
| 20260506183021 | 62 | 105 | 0.0 | 0.9 | 0.00 | 0.19 | 0.00 | 96 | 1025.7 |
| 20260506181514 | 62 | 104 | 0.0 | 0.9 | 0.00 | 0.19 | 0.00 | 96 | 1025.7 |
| 20260506180010 | 62 | 104 | 0.0 | 0.9 | 0.00 | 0.19 | 0.00 | 96 | 1025.8 |
| 20260506174509 | 62 | 99 | 0.0 | 0.9 | 0.00 | 0.24 | 0.00 | 96 | 1025.8 |
| 20260506173008 | 62 | 99 | 0.0 | 1.7 | 0.00 | 0.24 | 0.00 | 96 | 1026.0 |
| 20260506171508 | 62 | 124 | 0.0 | 0.9 | 0.00 | 0.24 | 0.00 | 96 | 1025.9 |
| 20260506170007 | 62 | 117 | 0.0 | 0.9 | 0.00 | 0.24 | 0.00 | 96 | 1025.9 |
| 20260506164509 | 62 | 117 | 0.0 | 0.9 | 0.00 | 0.24 | 0.00 | 96 | 1025.9 |
| 20260506163004 | 62 | 117 | 0.0 | 0.9 | 0.00 | 0.24 | 0.00 | 95 | 1025.9 |
| 20260506161503 | 62 | 117 | 0.0 | 0.9 | 0.00 | 0.24 | 0.00 | 95 | 1026.0 |
| 20260506160002 | 62 | 119 | 0.0 | 0.9 | 0.00 | 0.24 | 0.00 | 95 | 1026.0 |
| 20260506154604 | 62 | 117 | 0.0 | 0.9 | 0.00 | 0.24 | 0.00 | 95 | 1026.2 |
| 20260506153113 | 62 | 117 | 0.0 | 0.9 | 0.00 | 0.24 | 0.00 | 95 | 1026.3 |
| 20260506151556 | 62 | 117 | 0.0 | 0.9 | 0.00 | 0.24 | 0.00 | 94 | 1026.5 |
| 20260506150100 | 62 | 115 | 0.0 | 0.9 | 0.00 | 0.24 | 0.00 | 94 | 1026.7 |
| 20260506144557 | 62 | 114 | 0.0 | 0.9 | 0.00 | 0.24 | 0.00 | 93 | 1026.8 |
| 20260506143049 | 62 | 114 | 0.0 | 0.9 | 0.00 | 0.24 | 0.00 | 92 | 1027.1 |
| 20260506141545 | 63 | 114 | 0.0 | 0.9 | 0.00 | 0.24 | 0.00 | 92 | 1027.2 |
| 20260506140043 | 64 | 114 | 0.0 | 1.7 | 0.00 | 0.24 | 0.00 | 92 | 1027.4 |
| 20260506134541 | 64 | 122 | 0.0 | 0.9 | 0.00 | 0.25 | 0.00 | 92 | 1027.5 |
| 20260506133042 | 64 | 123 | 0.0 | 0.9 | 0.00 | 0.25 | 0.00 | 92 | 1027.6 |
| 20260506131541 | 64 | 122 | 0.0 | 0.9 | 0.00 | 0.25 | 0.00 | 92 | 1027.7 |
| 20260506130039 | 64 | 107 | 0.0 | 1.7 | 0.00 | 0.25 | 0.00 | 93 | 1027.6 |
| 20260506124537 | 64 | 108 | 0.0 | 0.9 | 0.00 | 0.25 | 0.00 | 92 | 1027.6 |
| 20260506123037 | 64 | 101 | 0.0 | 1.7 | 0.00 | 0.25 | 0.00 | 93 | 1027.7 |
| 20260506121535 | 64 | 107 | 0.0 | 1.7 | 0.00 | 0.25 | 0.00 | 93 | 1027.7 |